[[{"header":{"parameterUnit":"m.s-1","parameterCategory":1,"la1":30.2991,"la2":30.254,"lo1":-89.0895,"lo2":-89.0444,"dy":0.0017,"dx":0.0017,"nx":28,"ny":28,"refTime":"2025-05-28T09:00:00:Z","depth":0,"parameterNumber":2,"parameterNumberName":"U-component_of_WINDS"},"data":[0,0,0,0,0,0,0,0,0,0,0,0,0,0,0,0,0,0,0,0,0,0,0,0,0,0,0,0,0,0,0,0,0,0,0,0,0,0,0,0,0,0,0,0,0,0,0,0,0,0,0,0,0,0,0,0,0,0,0.9249,0.925,0,0.9292,0.9293,0.9293,0.9273,0.9272,0.9271,0.927,0.9315,0.9317,0.932,0,0,0,0,0,0,0,0,0,0,0,0,0,0.915,0.9152,0.9249,0.925,0.925,0.9292,0.9293,0.9293,0.9274,0.9272,0.9271,0.927,0.9315,0.9317,0.932,0,0,0,0,0,0,0,0,0,0,0,0,0,0.9193,0.9153,0.9249,0.9246,0.9246,0.9292,0.9293,0.9294,0.9274,0.9272,0.9271,0.9269,0.9314,0.9317,0.932,0.9373,0,0,0.933,0.9332,0,0,0,0,0,0,0,0,0.9191,0.9197,0.9246,0.9246,0.9246,0.9276,0.9274,0.932,0.9274,0.9263,0.927,0.9268,0.9304,0.9308,0.9319,0.9375,0.9377,0.9331,0.9333,0.9334,0.9335,0,0,0,0,0,0,0,0.9188,0.9195,0.9266,0.9246,0.9247,0.9242,0.9246,0.9283,0.9292,0.9264,0.9263,0.9268,0.9303,0.9316,0.932,0.9378,0.9331,0.9333,0.9336,0.9337,0.9478,0.9479,0,0,0,0,0,0,0.9185,0.9193,0.9265,0.9268,0.9214,0.9245,0.925,0.9268,0.9292,0.9294,0.9269,0.9267,0.9311,0.9316,0.9322,0.9384,0.9334,0.9337,0.9339,0.9476,0.9478,0.948,0,0,0,0,0,0,0.9183,0.9192,0.9263,0.923,0.9238,0.9248,0.9269,0.927,0.9282,0.9296,0.9297,0.9281,0.931,0.9317,0.936,0.9385,0.9339,0.9342,0.9474,0.9476,0.9479,0.9509,0,0,0,0,0,0,0.918,0.9191,0.9211,0.923,0.924,0.9301,0.9271,0.9272,0.9288,0.9285,0.9307,0.9309,0.9309,0.9355,0.9363,0.9389,0.9344,0.9472,0.9475,0.9478,0.9506,0.9513,0.9518,0,0,0,0,0,0.9177,0.9218,0.9212,0.9221,0.9266,0.9302,0.9308,0.9308,0.929,0.931,0.9319,0.9308,0.9381,0.936,0.9369,0.9396,0.947,0.9474,0.9478,0.9503,0.9511,0.9518,0,0,0,0,0,0,0.9202,0.9221,0.9214,0.9264,0.9282,0.9299,0.9324,0.9317,0.934,0.9337,0.9336,0.9341,0.9385,0.9395,0.9371,0.9447,0.9423,0.9429,0.9439,0.9447,0.9453,0.9449,0.9347,0,0,0,0,0,0.9214,0.9242,0.9257,0.9299,0.9308,0.9315,0.9331,0.9329,0.9348,0.9355,0.9367,0.9385,0.9412,0.943,0.9456,0.9508,0.9511,0.9531,0.9537,0.9542,0.9547,0.9573,0.9581,0.9493,0.9493,0.9493,0,0,0.9238,0.9251,0.9269,0.9304,0.9318,0.9347,0.9321,0.9353,0.9374,0.936,0.9401,0.941,0.9431,0.9478,0.9499,0.9487,0.9572,0.9547,0.955,0.9553,0.9578,0.9586,0.9594,0.9495,0.9495,0.9495,0,0,0.9295,0.9309,0.9345,0.9359,0.938,0.9384,0.9393,0.9411,0.9416,0.9457,0.9447,0.9472,0.9519,0.9534,0.9548,0.961,0.9601,0.9619,0.9651,0.9676,0.9683,0.969,0.9711,0.9719,0.9624,0.9624,0.9624,0,0.9322,0.9365,0.9365,0.9397,0.9412,0.94,0.9436,0.945,0.9478,0.9489,0.9476,0.9533,0.9547,0.9596,0.9611,0.9623,0.9632,0.9616,0.9682,0.9689,0.9694,0.9715,0.9723,0.9626,0.9626,0.9626,0.9625,0,0.9397,0.9427,0.9454,0.9481,0.9499,0.9533,0.9537,0.9556,0.9553,0.9558,0.9599,0.9615,0.9643,0.9654,0.9652,0.9704,0.9695,0.9682,0.9657,0.9705,0.9724,0.9731,0.9629,0.9628,0.9627,0.9627,0,0,0.9472,0.9498,0.9507,0.9519,0.9541,0.9564,0.9597,0.9624,0.964,0.966,0.9687,0.9727,0.9714,0.973,0.9729,0.9752,0.9799,0.9736,0.9736,0.9746,0.9855,0.9864,0.9873,0.9793,0.9794,0.9796,0.9853,0,0.953,0.9589,0.9589,0.9642,0.9669,0.9658,0.9687,0.9703,0.9709,0.9733,0.974,0.9767,0.9749,0.9758,0.9781,0.9788,0.9821,0.9784,0.9818,0.9819,0.9812,0.9883,0.9893,0.9947,0.9861,0.9862,0.9863,0,0.9606,0.9628,0.9684,0.9701,0.9713,0.9739,0.9763,0.9786,0.9804,0.9807,0.9824,0.9819,0.9852,0.9827,0.9872,0.9848,0.9861,0.9867,0.9869,0.9872,0.9843,0.9887,0.9964,0.9971,0.9875,0.9874,0.9873,0,0.9654,0.9698,0.9736,0.9747,0.9768,0.9786,0.9796,0.9813,0.9829,0.985,0.986,0.9885,0.9898,0.9918,0.992,0.9901,0.9965,0.994,0.9967,0.9967,0.9981,0.998,1.006,0.9992,0.9991,0.9991,0.9991,0,0.9719,0.9753,0.9758,0.9782,0.982,0.9819,0.9857,0.9865,0.988,0.9905,0.9897,0.992,0.9922,0.9946,0.9947,0.9984,0.9991,0.9993,0.9993,0.9993,0.9993,1.0002,0.9997,0.9993,0.9993,0.9993,0.9992,0,0.9778,0.9782,0.9824,0.9841,0.9845,0.9873,0.9887,0.9909,0.9914,0.9946,0.9953,0.9961,0.9989,0.9992,1.0025,1.0026,1.007,1.0066,1.0063,1.0063,1.0089,1.0086,1.0177,1.0189,1.0114,1.0114,1.0115,0,0.9818,0.9844,0.9864,0.988,0.989,0.9916,0.9932,0.9933,0.995,0.9972,0.9991,1.0018,1.004,1.0084,1.0093,1.0117,1.0114,1.0144,1.0117,1.0116,1.0113,1.0111,1.0113,1.0149,1.015,1.015,1.0151,0,0.9889,0.989,0.9913,0.9937,0.9957,0.9976,0.9994,1.0007,1.001,1.0029,1.0057,1.0074,1.0107,1.0133,1.0157,1.0167,1.0159,1.0159,1.0167,1.0167,1.0163,1.0164,1.0076,1.0157,1.0156,1.0156,1.0156,1.0155,0.9939,0.9961,0.9978,1.0004,1.0018,1.0034,1.0056,1.0064,1.0087,1.0113,1.0113,1.0143,1.016,1.0191,1.0203,1.0226,1.0216,1.0227,1.023,1.0232,1.0234,1.016,1.0231,1.0231,1.023,1.023,1.023,0,1.0008,1.0018,1.0042,1.0067,1.0088,1.0079,1.0098,1.0116,1.0143,1.0159,1.018,1.0211,1.0237,1.0247,1.0272,1.0289,1.0286,1.0295,1.0293,1.0295,1.0242,1.0233,1.0297,1.0297,1.0297,1.0297,1.0297,1.0297,1.0046,1.0083,1.0086,1.0129,1.0139,1.0169,1.018,1.0196,1.0208,1.0244,1.0265,1.0272,1.0285,1.0311,1.0333,1.0336,1.0344,1.0355,1.0356,1.0306,1.0299,1.0293,1.0284,1.0357,1.0358,1.0407,1.0407,1.0408]},{"header":{"parameterUnit":"m.s-1","parameterCategory":1,"la1":30.2991,"la2":30.254,"lo1":-89.0895,"lo2":-89.0444,"dy":0.0017,"dx":0.0017,"nx":28,"ny":28,"refTime":"2025-05-28T09:00:00:Z","depth":0,"parameterNumber":3,"parameterNumberName":"V-component_of_WINDS"},"data":[0,0,0,0,0,0,0,0,0,0,0,0,0,0,0,0,0,0,0,0,0,0,0,0,0,0,0,0,0,0,0,0,0,0,0,0,0,0,0,0,0,0,0,0,0,0,0,0,0,0,0,0,0,0,0,0,0,0,5.0922,5.0924,0,5.108,5.1081,5.1083,5.1075,5.1072,5.107,5.1068,5.1227,5.1233,5.1239,0,0,0,0,0,0,0,0,0,0,0,0,0,5.0612,5.0617,5.0922,5.0924,5.0926,5.1079,5.1082,5.1084,5.1075,5.1072,5.107,5.1067,5.1225,5.1232,5.124,0,0,0,0,0,0,0,0,0,0,0,0,0,5.0756,5.0619,5.0922,5.094,5.0943,5.1079,5.1082,5.1084,5.1076,5.1072,5.1069,5.1066,5.1222,5.1232,5.1241,5.1368,0,0,5.127,5.1274,0,0,0,0,0,0,0,0,5.0747,5.0767,5.0935,5.0939,5.0943,5.1054,5.103,5.1179,5.1077,5.1025,5.1068,5.1064,5.1172,5.1185,5.1222,5.1375,5.1382,5.1271,5.1277,5.1281,5.1283,0,0,0,0,0,0,0,5.0737,5.076,5.0984,5.0938,5.0943,5.094,5.0957,5.1059,5.1116,5.103,5.1029,5.1048,5.1173,5.1213,5.1226,5.1384,5.1271,5.1279,5.1285,5.1289,5.1649,5.1653,0,0,0,0,0,0,5.0724,5.0752,5.0979,5.0989,5.0835,5.0948,5.0967,5.1022,5.1115,5.1126,5.1051,5.1047,5.1199,5.1215,5.1232,5.1386,5.1281,5.129,5.1295,5.1646,5.165,5.1654,0,0,0,0,0,0,5.0717,5.0744,5.0973,5.0871,5.0899,5.0957,5.1019,5.1027,5.1067,5.1131,5.1141,5.1081,5.1197,5.1218,5.1334,5.1391,5.1294,5.1303,5.1641,5.1647,5.1652,5.1696,0,0,0,0,0,0,5.0708,5.0742,5.0791,5.0872,5.0905,5.1073,5.1023,5.1032,5.1083,5.108,5.1162,5.1172,5.1196,5.132,5.1344,5.1403,5.131,5.1636,5.1644,5.1651,5.1689,5.1702,5.1713,0,0,0,0,0,5.0697,5.0796,5.0793,5.082,5.0967,5.1076,5.1095,5.1121,5.1088,5.1137,5.1179,5.117,5.1382,5.1332,5.1359,5.1421,5.1633,5.1642,5.165,5.1684,5.17,5.1713,0,0,0,0,0,0,5.0718,5.0806,5.0805,5.0932,5.0997,5.1075,5.1138,5.1137,5.1212,5.1205,5.1233,5.1252,5.1368,5.1407,5.135,5.1549,5.1503,5.1517,5.1519,5.1535,5.1547,5.1534,5.1318,0,0,0,0,0,5.0738,5.082,5.0892,5.0998,5.1031,5.1079,5.1127,5.1142,5.121,5.1237,5.1287,5.1352,5.1434,5.1487,5.1565,5.1696,5.1713,5.1752,5.1764,5.1773,5.1785,5.1857,5.1875,5.1683,5.1683,5.1683,0,0,5.0778,5.0837,5.0887,5.1004,5.1056,5.114,5.1102,5.1192,5.1254,5.125,5.1363,5.1402,5.1477,5.1601,5.1658,5.1636,5.1842,5.1784,5.1791,5.1798,5.1868,5.1886,5.1902,5.1689,5.1688,5.1687,0,0,5.0896,5.0949,5.1043,5.1096,5.1176,5.1208,5.1231,5.131,5.1336,5.145,5.1449,5.1523,5.1663,5.1717,5.1762,5.1903,5.1897,5.1928,5.1989,5.2059,5.2074,5.2088,5.2137,5.2155,5.1939,5.194,5.194,0,5.0936,5.1063,5.1091,5.1182,5.1234,5.1236,5.1332,5.1382,5.1483,5.1518,5.1493,5.1669,5.172,5.1856,5.1891,5.1928,5.1955,5.1917,5.207,5.2084,5.2097,5.2145,5.2163,5.1943,5.1942,5.1942,5.1942,0,5.1109,5.1197,5.1263,5.1362,5.1422,5.1514,5.1556,5.1613,5.1623,5.1657,5.1774,5.1835,5.1926,5.196,5.197,5.2099,5.2083,5.2064,5.2018,5.2118,5.2163,5.2182,5.1947,5.1946,5.1945,5.1944,0,0,5.124,5.1356,5.138,5.1425,5.1515,5.1583,5.1677,5.1767,5.1815,5.1885,5.1964,5.2083,5.2067,5.2119,5.2135,5.2197,5.2304,5.217,5.2173,5.2192,5.2449,5.2462,5.2483,5.2302,5.2305,5.2308,5.2443,0,5.1366,5.1533,5.1562,5.1707,5.1789,5.1794,5.1875,5.1939,5.1974,5.2048,5.2087,5.2171,5.2143,5.2174,5.2236,5.2278,5.2356,5.2269,5.2374,5.2378,5.2354,5.2507,5.252,5.2644,5.2461,5.2464,5.2466,0,5.1534,5.1611,5.1765,5.1845,5.188,5.1953,5.2039,5.211,5.2183,5.2204,5.2263,5.2273,5.237,5.2321,5.2455,5.2395,5.244,5.2468,5.2473,5.2483,5.2427,5.2519,5.2684,5.2702,5.2494,5.2492,5.249,0,5.1614,5.1756,5.1866,5.1905,5.2001,5.2053,5.2095,5.2164,5.2217,5.2293,5.2327,5.2413,5.2459,5.2524,5.2557,5.2519,5.2689,5.2642,5.2708,5.2708,5.2742,5.274,5.2916,5.2774,5.2773,5.2773,5.2773,0,5.1751,5.1844,5.1904,5.1972,5.2077,5.211,5.2213,5.2254,5.2317,5.2392,5.2402,5.2472,5.2512,5.2588,5.2614,5.2721,5.2742,5.2762,5.2767,5.276,5.2758,5.2789,5.2781,5.2778,5.2777,5.2776,5.2775,0,5.1857,5.1901,5.2021,5.2104,5.2127,5.2201,5.2271,5.2337,5.2373,5.2468,5.2493,5.2549,5.264,5.2679,5.2791,5.2808,5.293,5.293,5.2906,5.2907,5.2971,5.2964,5.3173,5.3202,5.3041,5.3043,5.3044,0,5.194,5.2013,5.2104,5.2156,5.22,5.2284,5.2339,5.2375,5.2431,5.2521,5.2576,5.2667,5.2742,5.2886,5.2937,5.3022,5.3023,5.3091,5.3036,5.3027,5.3024,5.3019,5.3026,5.31,5.3102,5.3103,5.3104,0,5.2084,5.2102,5.2182,5.227,5.2336,5.2406,5.2475,5.2517,5.2564,5.2627,5.2721,5.2779,5.2894,5.2984,5.3073,5.3116,5.3118,5.3121,5.3141,5.3134,5.3116,5.3126,5.2932,5.3116,5.3114,5.3114,5.3113,5.3113,5.2181,5.2246,5.232,5.2409,5.2465,5.253,5.2597,5.2642,5.2721,5.2818,5.2835,5.2934,5.3006,5.3126,5.3173,5.3251,5.3234,5.3263,5.327,5.3276,5.328,5.3105,5.3267,5.3267,5.3267,5.3267,5.3266,0,5.2324,5.2373,5.2454,5.2552,5.2622,5.262,5.2696,5.2755,5.2843,5.291,5.2985,5.3093,5.3181,5.3239,5.3329,5.338,5.3383,5.3402,5.3398,5.3408,5.329,5.3264,5.3398,5.3398,5.3398,5.3398,5.3398,5.3398,5.2406,5.2517,5.2545,5.2683,5.2732,5.2831,5.2875,5.2935,5.2989,5.311,5.3184,5.3222,5.3286,5.338,5.3461,5.3476,5.3508,5.3528,5.3541,5.343,5.3416,5.3403,5.3378,5.3535,5.3535,5.3653,5.3654,5.3655]}]]